Showing default

ENSO, 58470

Orbit data source: Space-Track

ENSO, 58470 is a payload satellite owned by Montpellier (FR) in SSO that was launched on Fri, 01 Dec 2023 UTC via an FALCON 9 launch vehicle from the Air Force Western Test Range (AFWTR). Payload-class satellites include a variety of spacecraft equipped with specific instruments for various scientific and technological missions. These include communications satellites like Starlink; space stations such as the ISS; scientific satellites like the Hubble; Earth observation satellites from companies like Planet Labs, Umbra, and HawkEye 360; GPS; miniature CubeSats for education and research; and military/defense satellites.

Loading next visibility...
Identifier
58470, 2023-185J
Orbit
SSO
Last TLE update
9 hours ago
Origin
Manufacturer
Montpellier
Mission
Operational Amateur Technology
Bus & Motor
CUBESAT 1U, Unknown motor
Mass
1 kg wet, 1 kg dry
Launch date (UTC)
2023-12-01 (1 year ago)
Launch vehicle
FALCON 9
Launch site
Air Force Western Test Range (AFWTR)
Object type
Payload
Rocket body
Debris
Shape & HBR
Box + 2 Ant, 6 m
Radar Cross Section
0.232 m², Small (<0.1 m²)

Expand to show TLE details & history

TLE from 9 hours ago
0 ENSO
1 58470U 23185J   25131.21527993  .00046400  00000-0  74787-3 0  9993
2 58470  97.3759 205.4606 0008836 182.1628 177.9588 15.52756993 80478
Epoch: 2025-05-11T05:10Z
Definitive object data (Epoch: 2025-05-11T05:10:00.185Z)
Latitude
-0.00008°
Longitude
-101.28608°
Altitude
417.811 km
Speed
7.657 km/s
True Right ascension
13h 41m 50s
True Declination
0° 00' 00"
Sunlit
Object was in full shadow at TLE epoch
Visualization TLE readout
Latitude
-72.95655°
Longitude
54.26228°
Altitude
433.744 km
Speed
7.651 km/s
Apparent Right ascension
09h 13m 03s
Apparent Declination
-72° 57' 55"
Sunlit
Object is in daylight
Visualization observer readout
Local Sidereal Time
22:17:29
Azimuth
171.636° S
Elevation
-56.035°
Doppler factor
1
Orbital elements
Apogee altitude
411.596 km
Perigee altitude
399.608 km
Semi-major axis
6,783.739 km
Eccentricity
0.0008836
Inclination
97.3759°
RAAN
205.4606°
Arg. of periapsis
182.1628°
True anomaly
177.9624°
Mean anomaly
177.9588°
Eccentric anomaly
177.9606°
Mean motion
3.88454 °/min
BSTAR
0.00074787
Orbital period
92.68 mins
Loading maneuver chart data...
Loading SW <> Apogee altitude chart data...
Loading historical data...
Loading historical data...
Loading historical data...
Loading historical data...
Loading historical data...
Loading historical data...
Loading historical data...

ENSO Visibility forecast

Observer location: undefined°, undefined°

Span
Click to sort rows by Start time (UTC) header in descending order
Start Az.
Max El. time (UTC)
Max El. Az.
Max El.
End time (UTC)
End Az.
5 mins2025-05-11 18:05:31.641Z356.954° N2025-05-11 18:08:31.641Z262.508° W33.818°2025-05-11 18:10:31.641Z215.448° SW
|